Tracking 28793 objects as of 21-Apr-2024
HD Live streaming from Space Station
objects crossing your sky now

ARIANE 5 R/B

Track ARIANE 5 R/B now!


NORAD ID: 36832
Int'l Code: 2010-037C
Perigee: 282.4 km
Apogee: 31,971.8 km
Inclination: 2.5 °
Period: 559.7 minutes
Semi major axis: 22498 km
RCS: 25.4404 m2 (large)
Launch date: August 4, 2010
Source: France (FR)
Launch site: FRENCH GUIANA (FRGUI)

Note: This is a ROCKET BODY
Your satellite tracking list
Your tracking list is empty




NASA's NSSDC Master Catalog

Two Line Element Set (TLE):
1 36832U 10037C   24111.83378611  .00003572  00000-0  14084-2 0  9995
2 36832   2.5457   3.5474 7042697 340.7432   2.5665  2.57267013121649
Source of the keplerian elements: AFSPC